Miscellaneous Local Product
Issued by NWS Hastings, NE

Home | Current Version | Previous Version | Graphics & Text | Print | Product List | Glossary On
Versions: 1 2 3 4 5 6 7 8 9 10 11 12 13 14 15 16 17 18 19 20 21 22 23 24 25 26 27 28 29 30 31 32 33 34 35 36 37 38 39 40 41 42 43 44 45 46 47 48 49 50
000
AXUS43 KGID 251202
MISGRI

GID CWA HOURLY WEATHER ROUNDUP
NATIONAL WEATHER SERVICE HASTINGS NE
700 AM CDT SAT OCT 25 2014

NOTE: "FAIR" INDICATES FEW OR NO CLOUDS BELOW 12,000 FEET WITH NO
SIGNIFICANT WEATHER AND/OR OBSTRUCTIONS TO VISIBILITY.

...SOUTH CENTRAL NEBRASKA...

CITY           SKY/WX    TMP DP  RH WIND       PRES   REMARKS
GRAND ISLAND   CLEAR     42  39  89 SW5       30.09R
HASTINGS       CLEAR     44  40  85 N6        30.08R
KEARNEY        CLEAR     45  39  81 NW7       30.09R
ORD            CLEAR     46  38  73 N5        30.10R
YORK           CLEAR     46  43  87 N3        30.08R FOG
AURORA         CLEAR     42  39  87 CALM      30.08S
LEXINGTON      CLEAR     39  37  93 W6        30.09R WCI  35
HOLDREGE       CLEAR     41  39  92 CALM      30.07S
HEBRON         CLEAR     43  41  93 CALM      30.06R

...NEBRASKA PANHANDLE...

CITY           SKY/WX    TMP DP  RH WIND       PRES   REMARKS
CHADRON        CLEAR     32  30  92 SW3       30.17S
ALLIANCE       CLEAR     35  32  88 N5        30.15S WCI  31
SCOTTSBLUFF    CLEAR     39  32  76 CALM      30.16S
SIDNEY         CLEAR     39  30  70 W6        30.15R WCI  35

...WESTERN AND NORTH CENTRAL NEBRASKA...

CITY           SKY/WX    TMP DP  RH WIND       PRES   REMARKS
VALENTINE      CLEAR     41  33  73 N5        30.14R
AINSWORTH      CLEAR     40  34  76 CALM      30.12F
ONEILL         CLEAR     43  38  82 N7        30.13S
BROKEN BOW     CLEAR     47  41  80 N10       30.11R
IMPERIAL       CLEAR     45  32  60 NW6       30.10S
NORTH PLATTE   CLEAR     34  31  88 NW6       30.11R WCI  29
MCCOOK         CLEAR     40  34  79 SW7       30.09R

...EASTERN NEBRASKA...

CITY           SKY/WX    TMP DP  RH WIND       PRES   REMARKS
NORFOLK        CLEAR     45  40  82 W5        30.10R
SO SIOUX CITY  CLEAR     43  41  93 W5        30.09R
TEKAMAH        CLEAR     44  41  89 N5        30.08R
COLUMBUS       CLEAR     45  37  76 N8        30.09R
ALBION         CLEAR     41  37  84 NW5       30.10R
OMAHA EPPLEY   CLEAR     49  46  90 N9        30.06R
OFFUTT AFB     CLEAR     46  46 100 CALM      30.05R FOG
MILLARD        CLEAR     47  46  95 CALM      30.06R FOG
LINCOLN        CLEAR     44  41  89 CALM      30.08R
NEBRASKA CITY  CLEAR     51  47  86 CALM      30.06S
BEATRICE       CLEAR     43  43  99 CALM      30.06R
FALLS CITY     FOG       47  46  97 NW5       30.05R VSB 1/4

...NORTHERN KANSAS...

CITY           SKY/WX    TMP DP  RH WIND       PRES   REMARKS
GOODLAND       CLEAR     45  34  65 W7        30.13R
HILL CITY      CLEAR     42  38  85 SW5       30.06S
NORTON         SUNNY     41  34  75 W7        30.06
PHILLIPSBURG   CLEAR     46  46 100 W7        30.06R
SMITH CENTER   CLEAR     46  45  93 CALM      30.05S
BELOIT         CLEAR     46  46 100 NE3       30.03S
HAYS           CLEAR     46  41  81 W5        30.05S
RUSSELL        CLEAR     49  48  97 S5        30.03S
CONCORDIA      CLEAR     52  51  97 CALM      30.04S
SALINA         PTCLDY    53  51  93 S5        30.04R FOG
TOPEKA         FOG       53  53 100 CALM      30.05R VSB 1/4



USA.gov is the U.S. government's official web portal to all federal, state and local government web resources and services.